Regional Weather Roundup
Issued by NWS

Home | Current Version | Previous Version | Graphics & Text | Print | Product List | Glossary On
Versions: 1 2 3 4 5 6 7 8 9 10 11 12 13 14 15 16 17 18 19 20 21 22 23 24 25 26 27 28 29 30 31 32 33 34 35 36 37 38 39 40 41 42 43 44 45 46 47 48 49 50
000
ASUS43 KOAX 200210
RWRNE

WEATHER ROUNDUP FOR NEBRASKA
NATIONAL WEATHER SERVICE OMAHA NE
900 PM CDT SAT APR 19 2014

NOTES: SATELLITE DATA IS BEING USED TO AUGMENT CLOUD COVER ABOVE
       12000 FEET.
       "FAIR" INDICATES FEW OR NO CLOUDS BELOW 12,000 FEET WITH NO
       SIGNIFICANT WEATHER AND/OR OBSTRUCTIONS TO VISIBILITY.

  * THESE STATIONS DO NOT REPORT WEATHER SUCH AS RAIN...SNOW OR FOG.

NEZ001>004-019>022-054>056-200300-
NEBRASKA PANHANDLE

CITY           SKY/WX    TMP DP  RH WIND       PRES   REMARKS
SCOTTSBLUFF    PTCLDY    59  33  37 SE10      30.01R
ALLIANCE       PTCLDY    49  33  54 SE12      30.00R
CHADRON        PTCLDY    53  39  59 SE6       29.98R
KIMBALL        PTCLDY    53  35  50 S8        30.04R
SIDNEY         PTCLDY    51  34  52 SE7       30.03R
$$

NEZ057>060-069>072-079>082-200300-
SOUTHWEST NEBRASKA

CITY           SKY/WX    TMP DP  RH WIND       PRES   REMARKS
NORTH PLATTE   MOCLDY    57  43  59 NE6       30.00R
IMPERIAL       PTCLDY    56  42  59 NE8       30.00R
LEXINGTON      MOCLDY    62  51  66 N8        29.97R
MCCOOK         PTCLDY    61  49  64 N10       29.96R
OGALLALA       CLOUDY    62  39  42 SE8       30.01R
$$

NEZ005>010-023>029-035>040-094-200300-
NORTH CENTRAL NEBRASKA

CITY           SKY/WX    TMP DP  RH WIND       PRES   REMARKS
VALENTINE      CLEAR     55  12  18 E6        30.02S
AINSWORTH      MOCLDY    56  28  34 NE6       30.02S
BROKEN BOW     MOCLDY    56  45  66 N6        29.98S
O`NEILL        MOCLDY    58  35  42 N6        30.01R
ORD            MOCLDY    60  47  61 N6        29.97R
THEDFORD       MOCLDY    61  35  37 E6        30.03R
$$

NEZ041-046>049-061>064-073>077-083>087-200300-
SOUTH CENTRAL NEBRASKA

CITY           SKY/WX    TMP DP  RH WIND       PRES   REMARKS
GRAND ISLAND   CLOUDY    67  50  54 N8        29.94R
AURORA         CLOUDY    72  50  45 SE10      29.93R
HASTINGS       PTCLDY    69  48  47 NW6       29.92R
HEBRON         PTCLDY    72  49  42 S13G18    29.94R
HOLDREGE       MOCLDY    66  49  54 N7        29.95R
KEARNEY *      PTCLDY    63  50  63 N9        29.95R
YORK           CLOUDY    72  48  43 SE14      29.94R
$$

NEZ011>018-030>034-042>045-200300-
NORTHEAST NEBRASKA

CITY           SKY/WX    TMP DP  RH WIND       PRES   REMARKS
NORFOLK        PTCLDY    66  48  52 NE6       29.96S
ALBION         PTCLDY    64  47  53 NE8       29.97R
BLAIR          CLOUDY    73  42  33 SE16      29.97R
COLUMBUS *     CLOUDY    68  48  49 NE6       29.96S
FREMONT        CLOUDY    73  46  38 SE7       29.96S
TEKAMAH        CLOUDY    72  45  37 S12       29.95S
$$

NEZ050>053-065>068-078-088>093-200300-
SOUTHEAST NEBRASKA

CITY           SKY/WX    TMP DP  RH WIND       PRES   REMARKS
LINCOLN        CLOUDY    74  46  36 S14       29.96R
OMAHA EPPLEY   CLOUDY    74  43  32 S21       29.97R
BEATRICE       CLOUDY    73  44  34 SE12      29.98R
FALLS CITY     PTCLDY    65  45  48 SE9       30.02R
NEBRASKA CITY  MOCLDY    70  43  37 S20       30.00R
PLATTSMOUTH    MOCLDY    72  39  30 S14G21    29.99R
$$

NEZ044-045-051>053-067-200300-
OMAHA AREA

CITY           SKY/WX    TMP DP  RH WIND       PRES   REMARKS
OMAHA EPPLEY   CLOUDY    74  43  32 S21       29.97R
BLAIR          CLOUDY    73  42  33 SE16      29.97R
FREMONT        CLOUDY    73  46  38 SE7       29.96S
MILLARD        CLOUDY    73  45  36 SE10      29.97R
OFFUTT AFB     CLOUDY    71  44  37 SE16      29.98R
PLATTSMOUTH    MOCLDY    72  39  30 S14G21    29.99R
WAHOO          CLOUDY    71  45  39 SE7       29.96R
$$



USA.gov is the U.S. government's official web portal to all federal, state and local government web resources and services.